Location: Glencliff
(36.1226°N, 86.7183°W)
Time: 17:54:25
(UTC+00:00)

ATLAS CENTAUR R/B - Pass Details

Date: 25 August 2019
Orbit: 447 x 701 km, 64.7° (Epoch: 10 September)

Event Time Altitude Azimuth Distance (km) Brightness Sun altitude
Exits shadow 09:21:44 17° 168° (SSE) 1,704 3.6 -21.4°
Maximum altitude 09:24:51 34° 112° (ESE) 1,140 3.2 -20.9°
Drops below altitude 10° 09:29:19 10° 49° (NE) 2,168 5.5 -20.1°
Sets 09:31:50 0° 40° (NE) 3,082 6.4 -19.7°
